TimePST,TemperatureF,Dew PointF,Humidity,Sea Level PressureIn,VisibilityMPH,Wind Direction,Wind SpeedMPH,Gust SpeedMPH,PrecipitationIn,Events,Conditions,WindDirDegrees,DateUTC
12:56 AM,37.9,37.9,100,30.19,10.0,East,3.5,-,N/A,,Clear,90,2013-01-21 08:56:00
1:56 AM,38.8,37.9,97,30.18,10.0,SE,5.8,-,N/A,,Clear,130,2013-01-21 09:56:00
2:56 AM,36.9,36.0,97,30.16,10.0,Calm,Calm,-,N/A,,Clear,0,2013-01-21 10:56:00
3:56 AM,36.9,36.0,97,30.13,10.0,Calm,Calm,-,N/A,,Clear,0,2013-01-21 11:56:00
4:56 AM,36.9,34.9,93,30.13,10.0,Calm,Calm,-,N/A,,Clear,0,2013-01-21 12:56:00
5:56 AM,36.0,36.0,100,30.12,10.0,Calm,Calm,-,N/A,,Clear,0,2013-01-21 13:56:00
6:56 AM,36.0,36.0,100,30.16,10.0,Calm,Calm,-,N/A,,Clear,0,2013-01-21 14:56:00
7:56 AM,39.9,32.0,73,30.16,10.0,East,5.8,-,N/A,,Clear,100,2013-01-21 15:56:00
8:56 AM,38.8,34.9,86,30.17,10.0,Calm,Calm,-,N/A,,Clear,0,2013-01-21 16:56:00
9:56 AM,46.9,38.8,73,30.19,10.0,Calm,Calm,-,N/A,,Clear,0,2013-01-21 17:56:00
10:56 AM,54.0,36.0,51,30.19,10.0,Calm,Calm,-,N/A,,Clear,0,2013-01-21 18:56:00
11:56 AM,59.9,32.9,36,30.16,10.0,Variable,4.6,-,N/A,,Clear,0,2013-01-21 19:56:00
12:56 PM,63.0,26.1,25,30.14,10.0,SSW,5.8,-,N/A,,Clear,200,2013-01-21 20:56:00
1:56 PM,63.9,30.0,28,30.12,10.0,South,6.9,-,N/A,,Clear,190,2013-01-21 21:56:00
3:56 PM,61.9,28.0,28,30.12,10.0,South,4.6,-,N/A,,Clear,180,2013-01-21 23:56:00
4:56 PM,54.0,34.9,49,30.12,10.0,Calm,Calm,-,N/A,,Clear,0,2013-01-22 00:56:00
5:56 PM,47.8,31.1,52,30.11,10.0,Calm,Calm,-,N/A,,Clear,0,2013-01-22 01:56:00
6:56 PM,45.9,32.9,61,30.10,10.0,Calm,Calm,-,N/A,,Clear,0,2013-01-22 02:56:00
7:56 PM,45.9,36.9,71,30.10,10.0,ESE,4.6,-,N/A,,Clear,110,2013-01-22 03:56:00
8:56 PM,41.9,39.9,93,30.12,10.0,ESE,4.6,-,N/A,,Clear,110,2013-01-22 04:56:00
9:56 PM,41.9,39.9,93,30.12,10.0,Calm,Calm,-,N/A,,Clear,0,2013-01-22 05:56:00
10:56 PM,45.9,36.9,71,30.11,10.0,ESE,5.8,-,N/A,,Clear,120,2013-01-22 06:56:00
11:56 PM,45.9,36.9,71,30.09,10.0,Variable,4.6,-,N/A,,Clear,0,2013-01-22 07:56:00